Madrid, Spain

7:36 PM CEST on March 28, 2017 (GMT +0200)
Madrid-Barajas Airport

Weather History for LEMD - October, 2012

Change the Weather History Date:

Sunday, October 28, 2012

  Actual Average Record
Temperature  
Mean Temperature 46 °F -  
Max Temperature 53 °F 56 °F 80 °F (2006)
Min Temperature 38 °F 39 °F 37 °F (1998)
Degree Days  
Heating Degree Days 20    
Moisture  
Dew Point 30 °F    
Average Humidity 56    
Maximum Humidity 70    
Minimum Humidity 32    
Precipitation  
Precipitation 0.00 in 0.08 in - ()
Sea Level Pressure  
Sea Level Pressure 30.05 in    
Wind  
Wind Speed 9 mph ()    
Max Wind Speed 16 mph    
Max Gust Speed -    
Visibility 9.4 miles    
Events      
Averages and records for this station are not official NWS values.
T = Trace of Precipitation, MM = Missing Value Source: Averaged Metar Reports

Daily Weather History Graph

Daily Weather History Graph

Search for Another Location

Airport or City:

Trip Planner

Search our weather history database for the weather conditions in past years. The results will help you decide how hot, cold, wet, or windy it might be!

Date:

Astronomy

Oct. 28, 2012 Rise Set
Actual Time 7:39 AM CET 6:15 PM CET
Civil Twilight 7:11 AM CET 6:43 PM CET
Nautical Twilight 6:39 AM CET 7:15 PM CET
Astronomical Twilight 6:07 AM CET 7:47 PM CET
Moon 5:25 PM CET 6:18 AM CET
Length of Visible Light 11h 31m
Length of Day
10h 35m
Waxing Gibbous, 98% of the Moon is Illuminated
Oct 28
Waxing Gibbous
Oct 29
Full
Nov 7
Last Quarter
Nov 13
New
Nov 20
First Quarter

Hourly Weather History & Observations

Time (CET) Temp. Windchill Dew Point Humidity Pressure Visibility Wind Dir Wind Speed Gust Speed Precip Events Conditions
12:00 AM 46.4 °F 40.1 °F 32.0 °F 57% 29.95 in - NNE 15.0 mph - N/A   Clear
12:30 AM 46.4 °F 41.5 °F 30.2 °F 53% 29.98 in - NNE 10.4 mph - N/A   Clear
1:00 AM 44.6 °F 37.4 °F 30.2 °F 57% 29.98 in - North 16.1 mph - N/A   Clear
1:30 AM 44.6 °F 38.8 °F 28.4 °F 53% 29.98 in - North 11.5 mph - N/A   Clear
2:00 AM 42 °F - 26 °F 40% 30.05 in 19 mi North 11.5 mph - -  
2:00 AM 42.8 °F 37.0 °F 28.4 °F 57% 30.01 in - North 10.4 mph - N/A   Clear
2:30 AM 42.8 °F 36.2 °F 28.4 °F 57% 30.01 in - North 12.7 mph - N/A   Clear
2:00 AM 41.0 °F 34.3 °F 28.4 °F 61% 30.01 in - North 11.5 mph - N/A   Clear
2:30 AM 41.0 °F 34.7 °F 28.4 °F 61% 30.01 in - North 10.4 mph - N/A   Clear
3:00 AM 39.2 °F - 28.4 °F 65% 30.01 in - Variable 2.3 mph - N/A   Clear
3:30 AM 39.2 °F 33.6 °F 30.2 °F 70% 30.01 in - North 8.1 mph - N/A   Clear
4:00 AM 39.2 °F 33.0 °F 28.4 °F 65% 30.01 in - North 9.2 mph - N/A   Clear
4:30 AM 39.2 °F 33.6 °F 28.4 °F 65% 30.01 in - North 8.1 mph - N/A   Clear
5:00 AM 39.2 °F 32.5 °F 28.4 °F 65% 30.01 in - North 10.4 mph - N/A   Clear
5:30 AM 39.2 °F 35.0 °F 28.4 °F 65% 30.04 in - North 5.8 mph - N/A   Clear
6:00 AM 39.2 °F 33.6 °F 28.4 °F 65% 30.04 in - North 8.1 mph - N/A   Clear
6:30 AM 41.0 °F 34.3 °F 28.4 °F 61% 30.04 in - North 11.5 mph - N/A   Clear
7:00 AM 39 °F - 26 °F 47% 30.12 in 19 mi North 10.4 mph - -  
7:00 AM 39.2 °F 32.0 °F 26.6 °F 61% 30.06 in - North 11.5 mph - N/A   Clear
7:30 AM 39.2 °F 34.2 °F 28.4 °F 65% 30.06 in - NNW 6.9 mph - N/A   Clear
8:00 AM 39.2 °F 33.0 °F 28.4 °F 65% 30.06 in - North 9.2 mph - N/A   Clear
8:30 AM 41.0 °F 34.3 °F 30.2 °F 65% 30.09 in - North 11.5 mph - N/A   Clear
9:00 AM 41.0 °F 35.2 °F 30.2 °F 65% 30.09 in - North 9.2 mph - N/A   Clear
9:30 AM 42.8 °F 36.6 °F 30.2 °F 61% 30.09 in - North 11.5 mph - N/A   Clear
10:30 AM 46.4 °F 40.7 °F 32.0 °F 57% 30.09 in - North 12.7 mph - N/A   Clear
11:00 AM 46.4 °F 41.5 °F 30.2 °F 53% 30.09 in - North 10.4 mph - N/A   Clear
11:30 AM 48.2 °F - 30.2 °F 50% 30.12 in 6.2 mi North 12.7 mph - N/A   Partly Cloudy
12:00 PM 48.2 °F - 30.2 °F 50% 30.12 in 6.2 mi North 11.5 mph - N/A   Partly Cloudy
12:30 PM 50.0 °F - 32.0 °F 50% 30.09 in 6.2 mi North 11.5 mph - N/A   Partly Cloudy
1:00 PM 50 °F - 29 °F 32% 30.12 in 19 mi North 11.5 mph - -   Scattered Clouds
1:00 PM 51.8 °F - 33.8 °F 50% 30.09 in 6.2 mi North 10.4 mph - N/A   Partly Cloudy
1:30 PM 51.8 °F - 32.0 °F 47% 30.09 in 6.2 mi North 9.2 mph - N/A   Partly Cloudy
2:00 PM 51.8 °F - 32.0 °F 47% 30.06 in 6.2 mi North 8.1 mph - N/A   Partly Cloudy
2:30 PM 51.8 °F - 32.0 °F 47% 30.06 in 6.2 mi North 8.1 mph - N/A   Partly Cloudy
3:00 PM 53.6 °F - 32.0 °F 44% 30.04 in 6.2 mi NNE 6.9 mph - N/A   Partly Cloudy
3:30 PM 53.6 °F - 32.0 °F 44% 30.04 in 6.2 mi North 8.1 mph - N/A   Partly Cloudy
4:30 PM 53.6 °F - 33.8 °F 47% 30.04 in 6.2 mi North 8.1 mph - N/A   Partly Cloudy
5:00 PM 53.6 °F - 32.0 °F 44% 30.04 in 6.2 mi North 6.9 mph - N/A   Partly Cloudy
5:30 PM 51.8 °F - 32.0 °F 47% 30.04 in 6.2 mi North 8.1 mph - N/A   Partly Cloudy
6:00 PM 50.0 °F - 32.0 °F 50% 30.06 in - North 6.9 mph - N/A   Clear
6:30 PM 48.2 °F - 32.0 °F 54% 30.06 in - North 8.1 mph - N/A   Clear
7:00 PM 47 °F - 31 °F 43% 30.10 in 19 mi North 6.9 mph - -  
7:00 PM 46.4 °F 43.5 °F 33.8 °F 62% 30.06 in - North 5.8 mph - N/A   Clear
7:30 PM 46.4 °F 42.4 °F 32.0 °F 57% 30.06 in - North 8.1 mph - N/A   Clear
8:00 PM 46.4 °F 41.9 °F 32.0 °F 57% 30.06 in - North 9.2 mph - N/A   Clear
8:30 PM 46.4 °F 42.4 °F 32.0 °F 57% 30.06 in - North 8.1 mph - N/A   Clear
9:00 PM 44.6 °F 40.7 °F 32.0 °F 61% 30.06 in - North 6.9 mph - N/A   Clear
9:30 PM 44.6 °F - 32.0 °F 61% 30.06 in - Variable 2.3 mph - N/A   Clear
10:00 PM 42.8 °F 38.6 °F 32.0 °F 66% 30.09 in - ESE 6.9 mph - N/A   Clear
10:30 PM 42.8 °F - 32.0 °F 66% 30.09 in - Variable 1.2 mph - N/A   Clear